Location: Unspecified
(35.6961°N, 0.0000°E)
Time: 22:32:12
(UTC+00:00)

Vanguard 2 Rocket - Pass Details

Date: 28 May 2019
Orbit: 554 x 3326 km, 32.9° (Epoch: 15 June)

Event Time Altitude Azimuth Distance (km) Brightness Sun altitude
Rises 00:07:34 0° 181° (S) 6,610 - -32.9°
Reaches altitude 10° 00:15:11 10° 161° (SSE) 6,008 - -32.8°
Exits shadow 00:22:53 15° 137° (SE) 5,808 10.6 -32.6°
Maximum altitude 00:24:10 15° 133° (SE) 5,818 10.6 -32.6°
Drops below altitude 10° 00:33:19 10° 105° (ESE) 6,235 11.1 -32.3°
Sets 00:41:18 0° 86° (E) 7,015 11.6 -32.0°
